Wind_Speed
33 25 24 26 30 31 32 31 27 24 24 23 22 22 21 21 20 20 18 17 17 17 16 16 16 16 16 16 16 17 17 17 17 17 15 15 15 15 15 15 15 15 16 16
37 31 26 26 27 29 31 31 30 27 24 24 26 25 25 23 21 21 19 18 19 18 17 17 17 17 17 17 17 17 17 17 17 17 16 16 17 16 16 16 16 17 17 17
36 34 30 30 27 27 29 30 30 30 27 26 26 26 27 24 22 22 20 20 20 20 19 18 18 18 18 18 18 18 17 17 17 17 17 17 18 18 17 17 18 18 18 18
33 32 34 32 27 26 28 30 31 31 29 28 28 28 26 24 23 23 21 21 21 21 19 19 19 19 19 19 19 18 18 18 17 18 18 19 19 19 18 19 19 19 19 18
32 30 31 32 30 28 28 29 30 31 30 30 30 29 27 26 24 24 23 23 22 21 20 20 20 20 20 20 20 19 19 18 18 19 18 19 19 19 19 19 19 20 20 19
33 29 29 31 30 29 29 31 32 32 33 32 30 30 29 27 26 25 24 23 23 22 21 21 21 21 20 20 20 20 19 19 19 19 19 19 19 19 20 20 21 21 20 19
32 30 28 27 29 28 29 30 31 31 32 32 31 30 28 26 27 26 24 24 23 23 22 22 21 22 22 22 21 21 20 19 19 19 19 20 20 21 21 22 22 21 21 20
32 30 29 27 27 28 29 30 31 31 31 31 30 30 29 27 27 27 24 23 24 23 23 23 22 22 22 21 21 21 20 20 20 20 20 21 22 22 22 22 22 22 21 21
32 33 30 30 32 32 31 31 31 30 30 29 29 29 29 28 27 24 24 24 24 24 24 24 24 23 22 22 22 22 21 21 21 21 22 23 23 24 23 23 23 23 22 22
33 35 33 31 30 31 32 31 30 29 28 28 28 29 28 26 25 24 23 23 23 23 23 23 23 23 24 24 24 23 23 22 23 23 24 24 24 24 24 24 24 24 23 22
34 35 35 35 32 31 31 30 29 27 28 28 28 29 28 27 25 24 24 24 24 24 24 24 24 23 23 23 24 24 24 23 23 24 25 25 26 25 25 24 24 23 23 23
35 35 34 33 32 31 31 30 28 27 27 29 29 28 26 25 25 25 25 24 24 24 25 24 24 24 24 24 24 24 24 23 24 25 25 26 26 25 24 24 23 23 23 23
35 34 33 32 32 31 30 30 28 27 27 26 26 27 26 25 25 26 25 25 24 25 25 24 24 24 24 24 24 24 24 24 24 25 25 25 24 23 23 23 23 23 23 23
31 30 31 31 31 31 29 27 28 29 29 27 27 26 26 26 25 26 25 24 25 24 24 25 25 25 25 25 25 24 24 24 24 25 24 24 23 23 23 23 23 23 24 24
28 28 29 29 29 29 28 29 28 28 29 28 27 27 27 27 27 26 26 25 25 25 25 26 26 26 25 25 25 24 24 25 25 24 24 23 23 23 23 23 24 24 25 25
30 29 28 28 28 28 29 29 28 27 29 28 28 27 27 27 27 27 26 26 25 25 25 26 26 26 25 25 25 25 25 25 24 24 23 23 23 23 24 24 24 25 25 26
29 30 30 29 29 30 29 29 29 28 27 28 28 28 27 27 27 27 27 27 26 26 26 26 27 26 26 25 25 25 25 25 25 24 23 24 24 24 25 25 26 26 27 27
30 30 31 31 30 29 29 29 28 28 28 27 26 26 27 27 27 27 27 27 27 26 26 26 26 27 27 27 26 25 25 25 25 24 24 25 25 26 26 26 27 27 28 28
31 31 31 31 31 30 29 28 28 28 27 26 26 27 27 27 27 27 26 26 27 27 27 27 27 27 27 27 26 25 25 26 25 25 26 26 26 26 26 27 27 27 28 28
31 31 30 31 30 30 29 29 29 28 28 27 27 27 28 28 27 27 27 27 27 27 28 27 27 27 27 26 26 26 26 25 25 26 26 26 26 26 26 27 27 28 28 29
30 30 30 30 30 30 30 29 29 29 29 28 28 28 28 28 28 28 28 28 28 27 27 27 26 26 26 26 26 26 26 25 24 25 25 25 25 26 26 27 28 28 28 29
29 29 29 29 29 29 29 29 29 29 30 30 29 29 28 28 28 27 26 26 25 24 24 25 25 26 25 25 25 25 25 25 24 24 25 25 25 26 26 26 27 28 28 29
28 29 28 28 28 28 28 29 28 28 28 28 28 27 27 27 27 26 25 25 24 25 25 25 25 25 25 24 24 24 24 24 24 24 24 24 25 25 26 26 27 28 28 29
28 29 29 28 28 28 28 27 28 28 27 27 28 27 27 26 26 26 25 25 25 25 24 25 25 24 24 24 24 24 24 24 24 24 24 24 25 25 26 27 27 27 27 28
28 29 29 29 28 28 28 27 27 27 27 27 26 25 25 26 26 25 24 25 25 25 24 24 24 24 24 24 24 25 25 24 24 24 24 24 24 25 25 26 26 26 27 27
27 28 29 29 29 29 29 28 28 27 27 26 25 25 24 25 25 25 24 24 24 23 24 24 24 24 24 24 24 24 24 24 24 23 23 24 24 24 24 25 25 26 26 27
25 26 27 28 28 29 29 28 27 27 27 26 25 25 25 26 25 25 24 24 24 24 24 24 24 24 24 23 23 23 23 23 23 23 24 24 25 25 24 25 25 26 27 27
Wind_Direction
212 214 231 238 228 223 223 223 224 228 234 244 256 259 258 259 260 260 262 262 263 268 274 281 288 294 297 303 306 309 310 312 316 320 321 321 323 323 322 318 316 316 315 313
215 210 217 229 233 227 227 225 224 224 231 239 250 255 258 261 260 257 258 259 261 265 270 277 284 291 296 299 302 306 307 308 310 313 317 319 319 319 318 317 317 315 314 312
219 216 218 222 226 227 227 226 223 225 228 233 240 250 258 260 258 255 257 258 260 264 268 274 279 286 293 299 300 302 304 306 306 306 309 312 314 314 313 313 314 312 314 315
219 219 223 223 222 224 226 226 225 226 228 232 240 245 253 257 255 253 254 254 257 263 266 271 276 282 288 294 297 299 301 303 303 303 306 307 312 311 310 312 315 317 316 315
216 221 227 223 221 222 224 225 225 225 226 231 240 246 249 252 253 253 252 255 257 261 264 268 273 280 285 289 294 296 298 298 299 300 303 306 311 312 311 314 315 316 315 315
214 216 222 226 224 224 226 230 227 226 228 231 237 244 248 250 251 252 252 255 258 258 261 266 271 277 281 285 289 291 293 294 297 298 300 303 307 309 309 311 312 313 314 315
213 214 219 225 228 227 227 231 231 228 231 233 235 240 247 250 250 251 252 253 255 257 259 265 270 274 278 281 283 287 289 292 295 295 297 300 303 306 307 309 311 312 312 313
212 214 221 221 224 224 227 230 232 232 233 234 237 239 242 245 247 250 252 251 252 254 258 263 267 271 274 276 280 283 286 290 293 294 295 297 301 306 307 308 308 309 310 310
217 216 218 220 223 226 229 231 232 232 234 236 237 239 241 244 248 250 250 249 251 253 256 260 265 269 271 273 277 281 284 286 289 293 295 297 301 304 306 306 306 306 308 308
217 217 219 223 222 228 230 231 233 236 237 238 238 240 242 243 246 251 248 248 251 253 256 261 265 267 268 270 274 278 281 283 286 291 294 298 300 301 304 305 304 304 306 307
219 219 221 224 225 226 228 231 234 234 234 233 235 238 240 241 245 246 246 246 249 252 256 261 264 268 270 272 275 277 281 284 288 292 295 296 298 299 302 304 305 304 306 308
215 219 222 222 223 224 229 232 232 233 234 234 236 238 239 240 241 242 245 246 247 249 253 258 263 266 269 271 276 279 281 285 289 292 295 296 296 298 301 304 304 305 306 307
217 219 221 223 223 225 229 230 231 232 235 234 234 236 238 239 241 243 245 246 247 250 253 257 261 265 268 271 275 279 282 285 289 291 293 295 298 300 301 302 303 304 305 306
219 220 223 224 225 227 230 232 232 232 233 233 232 234 237 238 240 243 245 246 249 251 254 258 260 263 267 271 274 279 283 286 289 290 291 293 296 298 299 301 301 301 303 305
220 221 221 222 225 227 229 231 234 233 232 233 233 235 236 238 241 243 247 248 250 252 255 260 261 262 265 269 274 278 282 286 288 290 291 292 294 296 298 300 300 302 304 306
222 222 222 224 226 229 231 231 234 234 233 233 234 236 238 241 243 245 247 248 250 253 257 259 261 263 265 270 273 277 280 284 287 290 291 291 293 295 297 299 300 302 304 305
220 221 224 226 230 232 233 231 234 236 235 233 234 236 240 244 247 248 249 250 252 255 258 261 262 263 266 270 272 276 280 282 285 288 289 290 292 294 295 297 299 301 303 304
222 224 226 228 230 231 233 236 238 236 233 232 236 239 243 246 248 249 250 251 253 255 258 263 265 266 267 270 272 275 277 280 283 285 287 288 291 293 295 297 299 301 302 304
226 226 227 229 230 233 233 233 237 239 240 242 244 245 246 247 249 250 251 252 254 256 259 262 265 267 268 270 273 275 278 280 282 283 286 288 289 292 294 296 298 300 302 304
227 227 228 229 231 233 235 238 240 240 243 244 245 245 246 247 249 252 253 254 254 255 259 262 265 266 267 270 273 275 278 279 280 283 285 286 288 292 294 297 299 300 302 303
228 228 228 230 232 235 236 238 240 242 243 244 246 247 248 248 250 252 255 255 255 256 259 261 262 264 268 271 273 274 276 277 278 280 284 286 289 292 295 297 298 300 303 305
229 229 229 230 232 234 236 238 240 240 242 244 246 247 249 249 251 252 252 252 253 254 257 259 262 265 268 271 273 273 274 276 278 280 284 288 291 294 295 297 298 299 301 303
228 228 230 231 233 235 237 237 238 240 241 242 243 245 246 248 250 252 253 251 252 255 258 260 263 267 270 271 271 271 274 276 279 282 286 289 293 294 296 297 299 300 301 303
229 229 230 231 233 233 235 238 239 241 242 243 244 246 248 248 248 249 250 251 254 256 258 261 265 269 270 271 271 272 275 278 281 284 286 290 293 294 296 298 300 301 303 305
230 229 229 230 231 232 235 238 240 241 241 243 243 245 247 247 247 250 252 253 255 257 259 262 266 270 273 274 274 274 275 277 280 283 286 290 293 295 297 299 300 302 304 306
231 231 231 231 232 233 235 236 238 241 242 242 243 245 246 246 246 249 252 253 255 258 260 262 266 271 273 273 274 274 275 277 280 283 288 291 293 295 297 299 301 303 305 306
231 232 232 232 233 234 236 237 238 240 241 243 247 247 247 246 247 249 251 252 255 257 259 262 266 269 271 272 274 274 275 278 282 286 288 290 293 295 296 298 301 303 304 306
Height
5859 5865 5869 5871 5875 5880 5884 5888 5894 5898 5900 5901 5901 5902 5902 5903 5905 5906 5908 5909 5910 5910 5910 5910 5910 5909 5908 5908 5907 5906 5904 5903 5901 5899 5897 5895 5894 5892 5890 5889 5887 5885 5884 5882
5851 5857 5862 5866 5869 5873 5878 5883 5888 5892 5895 5897 5897 5897 5897 5898 5901 5902 5903 5904 5905 5906 5907 5907 5907 5906 5906 5905 5904 5903 5901 5900 5898 5897 5895 5893 5891 5890 5888 5886 5884 5882 5881 5879
5844 5851 5854 5858 5863 5867 5872 5876 5881 5885 5889 5890 5890 5891 5892 5894 5896 5897 5899 5900 5901 5902 5903 5903 5903 5903 5902 5902 5901 5900 5898 5897 5896 5894 5892 5890 5888 5886 5885 5883 5881 5879 5878 5876
5838 5844 5847 5855 5859 5862 5865 5870 5874 5878 5881 5883 5884 5886 5887 5889 5890 5892 5894 5894 5895 5897 5898 5899 5899 5899 5898 5898 5897 5896 5895 5894 5892 5891 5889 5888 5885 5883 5882 5880 5878 5876 5874 5872
5832 5837 5841 5847 5851 5855 5859 5863 5866 5870 5873 5876 5878 5880 5882 5884 5885 5887 5889 5889 5890 5892 5894 5894 5894 5894 5894 5894 5893 5892 5891 5890 5889 5887 5886 5884 5882 5880 5878 5876 5875 5873 5870 5868
5826 5831 5836 5841 5845 5848 5853 5855 5859 5862 5865 5868 5872 5875 5876 5878 5880 5882 5883 5884 5885 5887 5889 5890 5890 5890 5890 5890 5889 5889 5888 5886 5885 5884 5882 5881 5879 5877 5875 5873 5871 5869 5866 5864
5819 5825 5830 5835 5838 5842 5846 5849 5851 5854 5858 5862 5865 5869 5870 5872 5873 5875 5877 5879 5881 5883 5884 5885 5886 5886 5886 5885 5885 5884 5884 5882 5881 5880 5878 5877 5875 5873 5871 5869 5867 5865 5863 5861
5814 5819 5825 5828 5831 5834 5838 5842 5845 5848 5851 5855 5859 5861 5863 5866 5867 5869 5871 5873 5876 5877 5879 5880 5880 5881 5881 5881 5880 5880 5879 5878 5877 5876 5874 5873 5871 5869 5866 5864 5862 5861 5859 5856
5809 5814 5816 5819 5822 5826 5831 5835 5838 5842 5845 5849 5852 5855 5858 5860 5862 5864 5866 5868 5870 5872 5873 5874 5875 5875 5876 5876 5875 5875 5874 5874 5873 5871 5870 5868 5866 5864 5862 5860 5858 5856 5854 5852
5802 5806 5809 5812 5816 5820 5824 5829 5832 5836 5839 5843 5846 5849 5852 5854 5856 5858 5860 5863 5865 5866 5868 5869 5869 5870 5870 5870 5870 5870 5869 5868 5868 5866 5865 5863 5861 5859 5857 5855 5853 5851 5849 5847
5794 5799 5803 5806 5810 5814 5819 5822 5825 5829 5833 5837 5839 5842 5846 5849 5851 5853 5854 5857 5859 5861 5862 5863 5864 5865 5865 5865 5865 5864 5864 5863 5862 5861 5859 5857 5855 5854 5852 5850 5847 5845 5843 5841
5787 5792 5796 5800 5803 5808 5812 5816 5820 5823 5827 5830 5833 5836 5839 5842 5845 5848 5849 5851 5853 5855 5856 5858 5858 5859 5859 5859 5859 5859 5858 5857 5856 5855 5853 5852 5850 5848 5846 5844 5841 5839 5837 5836
5782 5786 5791 5793 5797 5802 5806 5810 5814 5818 5821 5823 5827 5830 5834 5837 5839 5842 5844 5846 5848 5849 5851 5852 5853 5853 5854 5854 5853 5853 5852 5852 5851 5849 5848 5846 5844 5842 5841 5839 5836 5834 5832 5830
5775 5780 5783 5786 5791 5796 5801 5804 5808 5811 5814 5817 5821 5824 5827 5830 5833 5836 5837 5839 5842 5843 5844 5846 5847 5847 5847 5848 5847 5847 5847 5846 5845 5843 5842 5840 5839 5837 5835 5833 5831 5829 5827 5824
5771 5774 5778 5782 5787 5791 5795 5799 5802 5804 5808 5811 5815 5818 5821 5825 5827 5829 5831 5833 5835 5837 5838 5839 5840 5841 5841 5841 5841 5841 5840 5840 5839 5837 5835 5834 5833 5831 5829 5828 5826 5823 5821 5818
5767 5771 5774 5779 5783 5786 5789 5793 5795 5798 5802 5805 5809 5812 5815 5818 5821 5823 5825 5827 5829 5830 5832 5833 5834 5834 5835 5835 5835 5834 5834 5833 5832 5831 5830 5828 5827 5825 5823 5822 5820 5818 5815 5812
5762 5767 5771 5775 5779 5781 5783 5787 5791 5794 5797 5800 5803 5806 5809 5812 5815 5817 5819 5821 5823 5824 5826 5827 5827 5827 5828 5828 5828 5828 5827 5826 5826 5825 5823 5822 5820 5819 5817 5815 5813 5811 5809 5806
5757 5761 5765 5769 5773 5776 5778 5782 5784 5787 5790 5792 5797 5801 5803 5806 5808 5810 5812 5814 5816 5818 5819 5820 5820 5821 5821 5821 5821 5821 5820 5819 5818 5818 5816 5815 5813 5812 5810 5808 5806 5804 5801 5799
5752 5756 5760 5764 5768 5771 5774 5776 5779 5781 5784 5787 5791 5794 5797 5799 5801 5803 5805 5807 5809 5811 5812 5813 5813 5814 5814 5814 5814 5814 5813 5812 5811 5811 5809 5808 5806 5805 5803 5801 5799 5797 5795 5792
5747 5751 5754 5758 5761 5765 5768 5771 5774 5777 5780 5783 5785 5788 5790 5792 5795 5797 5798 5800 5802 5803 5805 5805 5806 5807 5807 5807 5807 5807 5806 5806 5805 5804 5802 5801 5799 5798 5796 5794 5792 5790 5787 5785
5742 5745 5748 5752 5756 5759 5762 5765 5768 5771 5773 5776 5778 5781 5783 5786 5788 5790 5791 5793 5794 5796 5797 5798 5799 5799 5799 5800 5800 5800 5799 5798 5798 5796 5795 5794 5792 5791 5789 5787 5785 5783 5780 5777
5735 5739 5743 5746 5750 5753 5756 5759 5762 5764 5767 5770 5772 5775 5777 5779 5781 5782 5784 5786 5787 5789 5790 5791 5792 5792 5792 5792 5792 5792 5792 5791 5790 5789 5788 5787 5785 5784 5782 5780 5778 5776 5773 5770
5730 5734 5737 5741 5744 5747 5750 5753 5756 5758 5761 5763 5766 5768 5770 5772 5774 5776 5778 5779 5781 5782 5784 5785 5785 5785 5785 5785 5785 5785 5785 5784 5784 5783 5782 5780 5779 5777 5775 5773 5771 5769 5766 5763
5724 5728 5731 5734 5738 5741 5744 5747 5749 5752 5754 5757 5759 5761 5763 5765 5767 5769 5771 5773 5774 5776 5777 5778 5778 5779 5779 5779 5778 5778 5778 5778 5777 5776 5775 5774 5772 5770 5768 5766 5764 5761 5759 5756
5718 5721 5725 5728 5731 5735 5738 5740 5743 5745 5748 5750 5752 5754 5757 5759 5761 5763 5764 5766 5767 5769 5770 5771 5772 5772 5772 5772 5772 5772 5771 5771 5770 5769 5768 5767 5765 5764 5762 5759 5757 5754 5752 5749
5711 5715 5718 5722 5725 5728 5731 5734 5737 5739 5741 5744 5746 5748 5750 5752 5754 5756 5758 5759 5761 5762 5763 5765 5765 5765 5765 5765 5765 5765 5765 5764 5764 5763 5762 5760 5759 5757 5755 5752 5750 5748 5745 5742
5705 5708 5711 5715 5718 5721 5724 5728 5730 5733 5735 5737 5739 5741 5744 5746 5748 5750 5751 5753 5754 5756 5757 5758 5759 5759 5759 5759 5759 5758 5758 5758 5757 5756 5755 5754 5752 5750 5748 5746 5744 5741 5739 5736